Overview Statistics Trail Chart Weather Telemetry Raw packets
 

This is the latest recevied weather packets stored in our database for station/object K6GMW. If no packets are shown the sender has not sent any weather packets the latest 10 day(s).

<< 68 69 70 71 72 73 74 >>
Time Temp. Humidity Pressure Rain* Wind** Luminosity Snow
1788145937 31.11° C 47% 1015.8 hPa 0 mm - 0 W/m² -
1788145636 31.11° C 47% 1015.8 hPa 0 mm - 0 W/m² -
1788145346 30.56° C 47% 1015.9 hPa 0 mm - 0 W/m² -
1788145034 30.56° C 48% 1015.6 hPa 0 mm - 0 W/m² -
1788144729 30.56° C 48% 1015.5 hPa 0 mm - 0 W/m² -
1788144425 30.56° C 47% 1015.5 hPa 0 mm - 0 W/m² -
1788144123 30.56° C 48% 1015.5 hPa 0 mm - 0 W/m² -
1788143822 30.56° C 47% 1015.4 hPa 0 mm - 0 W/m² -
1788143521 30.56° C 47% 1015.4 hPa 0 mm - 0 W/m² -
1788143216 31.11° C 47% 1015.1 hPa 0 mm - 0 W/m² -
1788142911 31.11° C 46% 1015 hPa 0 mm - 0 W/m² -
1788142610 31.11° C 46% 1015 hPa 0 mm - 0 W/m² -
1788142306 31.67° C 46% 1014.9 hPa 0 mm - 0 W/m² -
1788142002 31.67° C 45% 1014.8 hPa 0 mm - 0 W/m² -
1788141696 31.67° C 45% 1014.7 hPa 0 mm - 0 W/m² -
1788141392 31.67° C 45% 1014.7 hPa 0 mm - 0 W/m² -
1788141092 31.67° C 46% 1014.7 hPa 0 mm - 0 W/m² -
1788140792 31.11° C 46% 1014.6 hPa 0 mm - 0 W/m² -
1788140487 31.11° C 47% 1014.6 hPa 0 mm - 0 W/m² -
1788140183 31.11° C 46% 1014.7 hPa 0 mm - 0 W/m² -
1788139883 31.11° C 46% 1014.6 hPa 0 mm - 0 W/m² -
1788139578 31.11° C 46% 1014.5 hPa 0 mm - 0 W/m² -
1788139273 31.67° C 45% 1014.3 hPa 0 mm - 0 W/m² -
1788138972 31.67° C 44% 1014.3 hPa 0 mm - 0 W/m² -
1788138668 32.22° C 43% 1014.3 hPa 0 mm - 0 W/m² -

* Rain latest hour (hover to see other rain measurements)
** Current wind speed in m/s (hover to see current wind gust speed)